DW8633 Weather Reports


Display with metric or nautical units.
time (UTC)temp
F
wind
direction
speed
MPH
gust
MPH
rain 1hr
in
rain 24hr
in
rain mn
in
humidity
%
barometer
mb
20260903065553 73 281 0.0 5.0 0.00 0.00 0.00 71 926.3
20260903065049 73 282 1.0 7.0 0.00 0.00 0.00 71 926.4
20260903064555 73 282 4.0 11.0 0.00 0.00 0.00 70 926.4
20260903064050 73 277 8.0 11.0 0.00 0.00 0.00 70 926.4
20260903063549 73 300 1.0 19.0 0.00 0.00 0.00 70 926.3
20260903063047 73 331 10.0 19.0 0.00 0.00 0.00 71 926.3
20260903062546 72 263 8.0 16.0 0.00 0.00 0.00 72 926.3
20260903061547 72 117 10.0 15.0 0.00 0.00 0.00 71 924.7
20260903061049 72 113 11.0 15.0 0.00 0.00 0.00 71 924.9
20260903060551 72 132 10.0 18.0 0.00 0.00 0.00 71 924.8
20260903060044 72 133 11.0 20.0 0.00 0.00 0.00 71 924.9
20260903055544 72 131 12.0 20.0 0.00 0.00 0.00 71 924.7
20260903055047 72 117 11.0 16.0 0.00 0.00 0.00 71 924.6
20260903054544 72 121 10.0 15.0 0.00 0.00 0.00 71 924.6
20260903054043 72 116 10.0 18.0 0.00 0.00 0.00 71 924.6
20260903053543 72 109 12.0 18.0 0.00 0.00 0.00 71 924.6
20260903053042 71 116 11.0 18.0 0.00 0.00 0.00 71 924.6
20260903052546 71 119 10.0 18.0 0.00 0.00 0.00 71 924.5
20260903051558 71 109 10.0 16.0 0.00 0.00 0.00 72 924.3
20260903051041 71 113 12.0 18.0 0.00 0.00 0.00 71 924.3
20260903050541 71 100 11.0 16.0 0.00 0.00 0.00 72 924.3
20260903050141 71 123 12.0 18.0 0.00 0.00 0.00 71 924.4
20260903045541 72 117 13.0 19.0 0.00 0.00 0.00 71 924.4
20260903045040 72 115 12.0 19.0 0.00 0.00 0.00 72 924.5
20260903044543 72 104 12.0 16.0 0.00 0.00 0.00 72 924.6
20260903044041 72 108 11.0 15.0 0.00 0.00 0.00 72 924.7
20260903043538 72 110 12.0 15.0 0.00 0.00 0.00 73 924.9
20260903043126 72 123 10.0 15.0 0.00 0.00 0.00 72 925.0
20260903042537 72 127 10.0 14.0 0.00 0.00 0.00 72 925.2
20260903041538 73 119 10.0 14.0 0.00 0.00 0.00 71 925.3
20260903041039 72 119 9.0 13.0 0.00 0.00 0.00 72 925.3
20260903040537 72 122 9.0 13.0 0.00 0.00 0.00 71 925.3
20260903040038 72 113 9.0 13.0 0.00 0.00 0.00 71 925.5
20260903035537 72 102 8.0 13.0 0.00 0.00 0.00 71 925.4
20260903035036 73 116 10.0 13.0 0.00 0.00 0.00 71 925.4
20260903034541 73 104 9.0 13.0 0.00 0.00 0.00 71 925.4
20260903034036 73 109 9.0 12.0 0.00 0.00 0.00 71 925.4
20260903033537 73 122 8.0 13.0 0.00 0.00 0.00 70 925.4
20260903033036 74 108 9.0 13.0 0.00 0.00 0.00 69 925.5
20260903032536 74 121 9.0 15.0 0.00 0.00 0.00 69 925.6
20260903031536 74 103 10.0 15.0 0.00 0.00 0.00 68 925.4
20260903031037 74 111 9.0 14.0 0.00 0.00 0.00 68 925.3
20260903030535 75 113 9.0 15.0 0.00 0.00 0.00 67 925.3
20260903030035 75 116 10.0 15.0 0.00 0.00 0.00 67 925.3
20260903025535 75 113 10.0 15.0 0.00 0.00 0.00 66 925.2
20260903025035 75 115 10.0 15.0 0.00 0.00 0.00 66 925.2
20260903024535 75 123 10.0 16.0 0.00 0.00 0.00 66 925.3
20260903024035 76 110 12.0 16.0 0.00 0.00 0.00 66 925.3
20260903023534 76 113 12.0 16.0 0.00 0.00 0.00 65 925.4
20260903023035 76 123 11.0 16.0 0.00 0.00 0.00 65 925.4
20260903022534 76 143 11.0 16.0 0.00 0.00 0.00 65 925.3
20260903021536 76 114 10.0 16.0 0.00 0.00 0.00 64 925.2
20260903021034 77 105 11.0 16.0 0.00 0.00 0.00 64 925.3
20260903020533 77 113 9.0 14.0 0.00 0.00 0.00 63 925.3
20260903020033 77 134 10.0 15.0 0.00 0.00 0.00 63 925.3
20260903015534 77 113 11.0 14.0 0.00 0.00 0.00 62 925.3
20260903015032 78 116 10.0 16.0 0.00 0.00 0.00 61 925.3
20260903014533 78 112 11.0 18.0 0.00 0.00 0.00 61 925.3
20260903014033 79 123 11.0 18.0 0.00 0.00 0.00 60 925.2
20260903013535 79 126 11.0 15.0 0.00 0.00 0.00 60 925.2
20260903013032 79 125 10.0 19.0 0.00 0.00 0.00 59 925.1
20260903012534 80 115 13.0 20.0 0.00 0.00 0.00 58 925.1
20260903011533 81 123 13.0 23.0 0.00 0.00 0.00 56 925.0
20260903011036 81 133 11.0 20.0 0.00 0.00 0.00 55 925.1
20260903010532 81 124 12.0 22.0 0.00 0.00 0.00 55 925.2
20260903010038 82 134 14.0 22.0 0.00 0.00 0.00 54 925.1
20260903005531 82 126 13.0 21.0 0.00 0.00 0.00 53 925.1
20260903005031 82 112 14.0 23.0 0.00 0.00 0.00 53 925.1
20260903004534 82 123 14.0 23.0 0.00 0.00 0.00 52 925.1
20260903004034 83 120 16.0 23.0 0.00 0.00 0.00 52 925.0
20260903003530 83 117 14.0 23.0 0.00 0.00 0.00 51 925.0
20260903003030 83 122 14.0 25.0 0.00 0.00 0.00 51 925.1
20260903002530 84 142 15.0 25.0 0.00 0.00 0.00 50 925.1
20260903001528 84 124 16.0 23.0 0.00 0.00 0.00 49 925.0
20260903001028 85 114 14.0 22.0 0.00 0.00 0.00 48 925.1
20260903000527 85 107 13.0 21.0 0.00 0.00 0.00 49 925.2
20260903000027 85 107 14.0 23.0 0.00 0.00 0.00 49 925.1
20260902235527 85 122 16.0 23.0 0.00 0.00 0.00 48 925.1
20260902235027 85 109 16.0 23.0 0.00 0.00 0.00 47 925.2
20260902234525 86 115 12.0 21.0 0.00 0.00 0.00 47 925.2
20260902234025 86 130 13.0 22.0 0.00 0.00 0.00 47 925.3
20260902233525 86 128 16.0 23.0 0.00 0.00 0.00 47 925.4
20260902233025 86 121 14.0 23.0 0.00 0.00 0.00 47 925.3
20260902232524 86 128 14.0 22.0 0.00 0.00 0.00 47 925.4
20260902231531 86 111 13.0 19.0 0.00 0.00 0.00 48 925.3
20260902231025 85 123 15.0 21.0 0.00 0.00 0.00 48 925.4
20260902230524 84 133 15.0 21.0 0.00 0.00 0.00 48 925.5
20260902230024 84 129 11.0 21.0 0.00 0.00 0.00 47 925.6
20260902225524 85 134 11.0 21.0 0.00 0.00 0.00 47 925.5
20260902225024 86 127 11.0 20.0 0.00 0.00 0.00 46 925.5
20260902224529 86 143 13.0 21.0 0.00 0.00 0.00 46 925.6
20260902224024 86 121 13.0 22.0 0.00 0.00 0.00 46 925.5
20260902223526 87 131 15.0 23.0 0.00 0.00 0.00 45 925.6
20260902223026 87 132 16.0 24.0 0.00 0.00 0.00 46 925.6
20260902222521 87 130 14.0 24.0 0.00 0.00 0.00 45 925.7
20260902221521 87 123 14.0 21.0 0.00 0.00 0.00 45 925.7
20260902221021 87 130 14.0 21.0 0.00 0.00 0.00 45 925.8
20260902220521 87 113 12.0 21.0 0.00 0.00 0.00 46 925.8
20260902220020 86 107 12.0 20.0 0.00 0.00 0.00 46 925.7
20260902215525 85 130 13.0 22.0 0.00 0.00 0.00 47 925.8
20260902215019 86 132 15.0 22.0 0.00 0.00 0.00 47 925.9
20260902214519 86 126 12.0 23.0 0.00 0.00 0.00 46 925.9
20260902214019 87 126 15.0 23.0 0.00 0.00 0.00 46 925.9
20260902213518 87 152 14.0 23.0 0.00 0.00 0.00 46 926.0
20260902213016 86 121 14.0 23.0 0.00 0.00 0.00 47 926.0
20260902212516 86 120 15.0 26.0 0.00 0.00 0.00 47 926.2
20260902211517 86 119 17.0 24.0 0.00 0.00 0.00 47 926.1
20260902211015 87 121 15.0 23.0 0.00 0.00 0.00 47 926.2
20260902210514 86 124 13.0 24.0 0.00 0.00 0.00 48 926.1
20260902210014 86 120 12.0 24.0 0.00 0.00 0.00 48 926.3
20260902205513 86 140 13.0 22.0 0.00 0.00 0.00 48 926.3
20260902205013 86 119 14.0 24.0 0.00 0.00 0.00 48 926.3
20260902204516 86 128 17.0 25.0 0.00 0.00 0.00 47 926.6
20260902204014 86 121 16.0 25.0 0.00 0.00 0.00 48 926.4
20260902203511 86 108 12.0 23.0 0.00 0.00 0.00 49 926.5
20260902203011 86 133 14.0 23.0 0.00 0.00 0.00 48 926.5
20260902202510 85 129 13.0 22.0 0.00 0.00 0.00 48 926.7
20260902201558 86 138 13.0 24.0 0.00 0.00 0.00 48 926.9
20260902201042 86 134 17.0 23.0 0.00 0.00 0.00 47 926.9
20260902200538 86 130 14.0 22.0 0.00 0.00 0.00 48 926.8
20260902200051 86 129 15.0 22.0 0.00 0.00 0.00 49 926.9
20260902195537 85 154 16.0 25.0 0.00 0.00 0.00 49 927.0
20260902195037 86 133 13.0 25.0 0.00 0.00 0.00 49 927.0
20260902194534 85 132 13.0 24.0 0.00 0.00 0.00 50 927.0
20260902194035 85 127 14.0 24.0 0.00 0.00 0.00 49 927.2
20260902193532 85 124 15.0 23.0 0.00 0.00 0.00 50 927.1
20260902193031 85 117 14.0 25.0 0.00 0.00 0.00 50 927.3
20260902192531 84 137 16.0 25.0 0.00 0.00 0.00 50 927.4
20260902191519 84 138 17.0 25.0 0.00 0.00 0.00 50 927.5
20260902191018 83 105 17.0 27.0 0.00 0.00 0.00 51 927.5
20260902190519 84 117 15.0 27.0 0.00 0.00 0.00 51 927.6
20260902190027 84 134 20.0 28.0 0.00 0.00 0.00 51 927.6
20260902185515 83 133 17.0 28.0 0.00 0.00 0.00 52 927.7
20260902185013 83 111 17.0 26.0 0.00 0.00 0.00 51 927.7
20260902184516 83 126 16.0 27.0 0.00 0.00 0.00 52 927.8
20260902184012 83 172 18.0 27.0 0.00 0.00 0.00 53 928.1
20260902183513 82 122 16.0 23.0 0.00 0.00 0.00 53 928.0
20260902183012 83 140 16.0 23.0 0.00 0.00 0.00 53 928.1
20260902182509 83 142 14.0 22.0 0.00 0.00 0.00 53 928.1
20260902181550 82 138 16.0 22.0 0.00 0.00 0.00 54 928.3
20260902181048 82 130 15.0 24.0 0.00 0.00 0.00 54 928.4
20260902180547 81 106 18.0 24.0 0.00 0.00 0.00 55 928.5
20260902180047 81 144 15.0 26.0 0.00 0.00 0.00 56 928.5
20260902175545 81 118 15.0 26.0 0.00 0.00 0.00 56 928.6
20260902175045 81 148 14.0 24.0 0.00 0.00 0.00 57 928.7
20260902174545 81 121 17.0 25.0 0.00 0.00 0.00 56 928.8
20260902174045 80 122 16.0 23.0 0.00 0.00 0.00 56 928.8
20260902173543 80 142 14.0 24.0 0.00 0.00 0.00 57 928.9
20260902173043 80 163 16.0 25.0 0.00 0.00 0.00 57 928.9
20260902172541 79 140 18.0 25.0 0.00 0.00 0.00 58 928.9
20260902171540 79 131 16.0 23.0 0.00 0.00 0.00 60 929.0
20260902171040 78 138 13.0 21.0 0.00 0.00 0.00 62 929.0
20260902170538 77 150 15.0 25.0 0.00 0.00 0.00 63 929.0
20260902170036 78 131 12.0 21.0 0.00 0.00 0.00 63 929.1
20260902165535 76 95 13.0 23.0 0.00 0.00 0.00 66 929.1
20260902165035 76 137 14.0 24.0 0.00 0.00 0.00 66 929.1
20260902164534 76 129 14.0 24.0 0.00 0.00 0.00 67 929.2
20260902164032 75 132 14.0 22.0 0.00 0.00 0.00 67 929.1
20260902163530 75 123 14.0 21.0 0.00 0.00 0.00 67 929.3
20260902163028 75 360 14.0 21.0 0.00 0.00 0.00 67 929.3
20260902162527 74 360 12.0 19.0 0.00 0.00 0.00 66 929.4
20260902161536 73 360 15.0 20.0 0.00 0.00 0.00 65 929.5
20260902161025 73 360 12.0 19.0 0.00 0.00 0.00 67 929.5
20260902160523 72 360 11.0 19.0 0.00 0.00 0.00 65 929.6
20260902160025 72 360 12.0 20.0 0.00 0.00 0.00 65 929.7
20260902155521 71 360 15.0 20.0 0.00 0.00 0.00 63 929.8
20260902155020 71 360 11.0 19.0 0.00 0.00 0.00 64 929.8
20260902154526 70 360 12.0 21.0 0.00 0.00 0.00 64 929.9
20260902154117 70 360 14.0 21.0 0.00 0.00 0.00 64 929.9
20260902153518 70 360 12.0 19.0 0.00 0.00 0.00 63 930.0
20260902153018 70 134 12.0 21.0 0.00 0.00 0.00 64 930.1
20260902152514 69 142 13.0 21.0 0.00 0.00 0.00 64 930.0
20260902151516 69 130 13.0 19.0 0.00 0.00 0.00 64 930.0
20260902151015 68 125 12.0 19.0 0.00 0.00 0.00 65 930.0
20260902150513 68 126 12.0 18.0 0.00 0.00 0.00 64 930.0
20260902150015 67 128 11.0 18.0 0.00 0.00 0.00 65 929.9
20260902145511 67 360 10.0 19.0 0.00 0.00 0.00 65 929.9
20260902145011 67 131 12.0 19.0 0.00 0.00 0.00 65 930.0
20260902144510 66 119 11.0 19.0 0.00 0.00 0.00 66 930.0
20260902144007 65 118 12.0 19.0 0.00 0.00 0.00 66 930.0
20260902143507 65 360 11.0 18.0 0.00 0.00 0.00 67 930.1
20260902143005 65 360 11.0 16.0 0.00 0.00 0.00 68 930.2
20260902142504 64 360 11.0 16.0 0.00 0.00 0.00 69 930.2
20260902141501 63 360 9.0 14.0 0.00 0.00 0.00 72 930.2
20260902141100 62 360 9.0 13.0 0.00 0.00 0.00 73 930.2
20260902141001 62 360 9.0 13.0 0.00 0.00 0.00 73 930.2
20260902140600 61 360 9.0 13.0 0.00 0.00 0.00 74 930.2
20260902140501 61 360 9.0 13.0 0.00 0.00 0.00 74 930.2
20260902140000 60 360 9.0 11.0 0.00 0.00 0.00 76 930.1
20260902135600 60 360 8.0 11.0 0.00 0.00 0.00 77 930.1
20260902135059 59 360 7.0 11.0 0.00 0.00 0.00 78 930.1
20260902134600 58 360 7.0 10.0 0.00 0.00 0.00 79 930.2
20260902134059 57 360 7.0 12.0 0.00 0.00 0.00 80 930.1
20260902133559 57 360 7.0 11.0 0.00 0.00 0.00 81 930.1
20260902133100 56 360 7.0 10.0 0.00 0.00 0.00 83 930.3
20260902132603 55 360 7.0 10.0 0.00 0.00 0.00 84 930.3
20260902131607 54 360 5.0 8.0 0.00 0.00 0.00 85 930.2
20260902131100 53 360 5.0 8.0 0.00 0.00 0.00 86 930.2
20260902130600 53 360 5.0 7.0 0.00 0.00 0.00 86 930.2
20260902130100 53 360 3.0 6.0 0.00 0.00 0.00 86 930.2
20260902125601 52 360 1.0 3.0 0.00 0.00 0.00 86 930.2
20260902125059 52 360 0.0 4.0 0.00 0.00 0.00 87 930.3
20260902124602 52 360 0.0 3.0 0.00 0.00 0.00 88 930.3
20260902124059 51 360 2.0 3.0 0.00 0.00 0.00 87 930.4
20260902123558 51 360 0.0 4.0 0.00 0.00 0.00 86 930.2
20260902123059 51 360 2.0 4.0 0.00 0.00 0.00 86 930.1
20260902122558 51 360 2.0 4.0 0.00 0.00 0.00 86 930.2
20260902121603 51 360 3.0 5.0 0.00 0.00 0.00 86 930.0
20260902121058 51 360 2.0 4.0 0.00 0.00 0.00 85 930.0
20260902120557 51 360 2.0 5.0 0.00 0.00 0.00 84 930.1
20260902120055 52 360 3.0 5.0 0.00 0.00 0.00 84 930.1
20260902115554 52 360 2.0 7.0 0.00 0.00 0.00 84 930.0
20260902115057 53 360 5.0 8.0 0.00 0.00 0.00 84 930.1
20260902114555 53 360 5.0 9.0 0.00 0.00 0.00 84 930.1
20260902114055 53 360 5.0 9.0 0.00 0.00 0.00 84 930.0
20260902113553 53 360 5.0 8.0 0.00 0.00 0.00 84 930.1
20260902113108 53 360 5.0 8.0 0.00 0.00 0.00 84 930.0
20260902112553 53 360 6.0 8.0 0.00 0.00 0.00 84 930.1
20260902111600 53 360 6.0 8.0 0.00 0.00 0.00 84 930.0
20260902111053 53 360 6.0 8.0 0.00 0.00 0.00 84 930.1
20260902110555 53 360 6.0 8.0 0.00 0.00 0.00 84 930.1
20260902110055 53 360 6.0 8.0 0.00 0.00 0.00 84 930.2
20260902105553 53 360 6.0 8.0 0.00 0.00 0.00 84 930.2
20260902105050 53 360 5.0 7.0 0.00 0.00 0.00 84 930.4
20260902104549 52 360 5.0 6.0 0.00 0.00 0.00 84 930.3
20260902104049 52 360 5.0 6.0 0.00 0.00 0.00 84 930.4
20260902103548 53 360 4.0 6.0 0.00 0.00 0.00 83 930.3
20260902103049 53 360 4.0 7.0 0.00 0.00 0.00 83 930.4
20260902102547 53 360 5.0 7.0 0.00 0.00 0.00 83 930.5
20260902102147 53 360 5.0 8.0 0.00 0.00 0.00 83 930.6
20260902101554 53 360 5.0 8.0 0.00 0.00 0.00 83 930.5
20260902101047 53 360 5.0 8.0 0.00 0.00 0.00 83 930.5
20260902100547 53 360 6.0 8.0 0.00 0.00 0.00 82 930.5
20260902100047 53 360 5.0 8.0 0.00 0.00 0.00 82 930.5
20260902095547 53 360 6.0 8.0 0.00 0.00 0.00 83 930.6
20260902095045 53 360 5.0 6.0 0.00 0.00 0.00 82 930.6
20260902094550 53 360 4.0 6.0 0.00 0.00 0.00 81 930.5
20260902094044 54 360 5.0 7.0 0.00 0.00 0.00 80 930.5
20260902093546 54 360 5.0 8.0 0.00 0.00 0.00 79 930.6
20260902093041 55 360 5.0 8.0 0.00 0.00 0.00 79 930.5
20260902092544 55 360 5.0 7.0 0.00 0.00 0.00 78 930.4
20260902092143 56 360 4.0 7.0 0.00 0.00 0.00 77 930.5
20260902091545 56 360 5.0 8.0 0.00 0.00 0.00 77 930.5
20260902091037 56 360 6.0 8.0 0.00 0.00 0.00 76 930.6
20260902090537 57 360 6.0 8.0 0.00 0.00 0.00 76 930.5
20260902090035 57 360 5.0 8.0 0.00 0.00 0.00 76 930.6
20260902085534 57 360 5.0 8.0 0.00 0.00 0.00 76 930.5
20260902085034 57 360 5.0 8.0 0.00 0.00 0.00 76 930.5
20260902084535 57 360 6.0 8.0 0.00 0.00 0.00 76 930.6
20260902084034 57 360 5.0 8.0 0.00 0.00 0.00 76 930.6
20260902083532 57 360 5.0 8.0 0.00 0.00 0.00 76 930.6
20260902083031 57 360 5.0 8.0 0.00 0.00 0.00 75 930.6
20260902082531 57 360 5.0 8.0 0.00 0.00 0.00 74 930.6
20260902082130 59 360 6.0 9.0 0.00 0.00 0.00 73 930.6
20260902081529 59 360 5.0 9.0 0.00 0.00 0.00 72 930.7
20260902081029 59 360 6.0 8.0 0.00 0.00 0.00 72 930.8
20260902080529 59 360 6.0 9.0 0.00 0.00 0.00 72 930.8
20260902080032 59 360 6.0 9.0 0.00 0.00 0.00 72 930.8
20260902075527 59 360 6.0 8.0 0.00 0.00 0.00 71 930.8
20260902075026 60 360 5.0 8.0 0.00 0.00 0.00 71 930.8
20260902074526 60 360 5.0 8.0 0.00 0.00 0.00 71 930.8
20260902074025 60 360 6.0 8.0 0.00 0.00 0.00 71 930.8
20260902073527 60 360 6.0 8.0 0.00 0.00 0.00 70 930.9
20260902073024 60 360 5.0 8.0 0.00 0.00 0.00 70 931.0
20260902072522 61 360 6.0 9.0 0.00 0.00 0.00 69 930.9
20260902072123 61 360 6.0 10.0 0.00 0.00 0.00 69 930.9
20260902071527 61 360 7.0 10.0 0.00 0.00 0.00 69 931.0
20260902071020 62 360 7.0 10.0 0.00 0.00 0.00 68 930.8
20260902070517 62 360 6.0 9.0 0.00 0.00 0.00 68 930.9
20260902070024 62 360 7.0 9.0 0.00 0.00 0.00 67 930.9